FW6267 Weather Reports


time (UTC)temp
C
wind
direction
speed
KPH
gust
KPH
rain 1hr
cm
rain 24hr
cm
rain mn
cm
humidity
%
barometer
mb
20260510160601 10 0 0.0 4.8 0.03 0.46 0.30 90 1012.0
20260510160100 10 225 0.0 4.8 0.03 0.46 0.30 90 1011.9
20260510155558 10 0 0.0 1.6 0.05 0.46 0.30 91 1011.8
20260510155056 10 0 0.0 1.6 0.08 0.46 0.30 90 1011.8
20260510154601 10 0 0.0 4.8 0.13 0.46 0.30 90 1011.8
20260510154100 10 0 0.0 4.8 0.20 0.46 0.30 90 1011.7
20260510153559 10 225 1.6 4.8 0.28 0.46 0.30 90 1011.7
20260510153100 10 0 0.0 6.4 0.28 0.46 0.30 90 1011.8
20260510152603 10 225 3.2 12.9 0.28 0.46 0.30 90 1011.9
20260510152059 10 225 3.2 14.5 0.28 0.46 0.30 90 1011.9
20260510151612 10 227 8.0 14.5 0.25 0.43 0.28 89 1011.9
20260510151100 10 242 8.0 16.1 0.25 0.43 0.28 89 1011.9
20260510150600 10 217 8.0 16.1 0.25 0.43 0.28 89 1011.9
20260510150104 10 222 6.4 16.1 0.25 0.43 0.28 89 1011.8
20260510145556 10 234 6.4 16.1 0.23 0.41 0.25 89 1011.8
20260510145100 10 220 6.4 17.7 0.20 0.38 0.23 88 1011.8
20260510144557 10 247 9.7 17.7 0.15 0.33 0.18 89 1011.9
20260510144057 10 224 6.4 14.5 0.08 0.25 0.10 89 1011.8
20260510143558 11 251 1.6 9.7 0.00 0.18 0.03 89 1011.6
20260510143058 11 0 0.0 3.2 0.00 0.18 0.03 88 1011.0
20260510142559 11 0 0.0 3.2 0.00 0.18 0.03 88 1010.9
20260510142100 11 0 0.0 3.2 0.00 0.18 0.03 87 1010.8
20260510141559 11 0 0.0 6.4 0.00 0.18 0.03 87 1011.0
20260510141059 11 0 0.0 6.4 0.00 0.18 0.03 87 1011.0
20260510140602 11 0 1.6 8.0 0.00 0.18 0.03 87 1011.1
20260510140058 11 88 1.6 8.0 0.00 0.18 0.03 87 1011.2
20260510135600 11 161 1.6 8.0 0.00 0.18 0.03 88 1011.0
20260510135057 11 115 0.0 8.0 0.00 0.18 0.03 88 1010.9
20260510134600 11 208 1.6 9.7 0.00 0.18 0.03 88 1011.1
20260510134059 11 0 1.6 9.7 0.00 0.18 0.03 89 1011.0
20260510133558 11 213 1.6 8.0 0.00 0.18 0.03 89 1011.0
20260510133100 11 213 1.6 8.0 0.00 0.18 0.03 90 1011.0
20260510132559 11 209 0.0 6.4 0.00 0.18 0.03 91 1011.1
20260510132100 11 0 1.6 6.4 0.00 0.18 0.03 91 1011.0
20260510131558 11 102 0.0 9.7 0.00 0.18 0.03 91 1011.0
20260510131058 11 212 1.6 12.9 0.00 0.18 0.03 92 1011.0
20260510130601 10 200 1.6 12.9 0.00 0.18 0.03 92 1011.0
20260510130057 10 234 1.6 8.0 0.00 0.18 0.03 93 1011.0
20260510125557 10 171 0.0 9.7 0.00 0.18 0.03 93 1011.0
20260510125058 10 107 3.2 9.7 0.00 0.18 0.03 93 1010.6
20260510124617 10 74 3.2 9.7 0.00 0.18 0.03 93 1010.8
20260510124057 10 53 1.6 6.4 0.00 0.18 0.03 94 1010.8
20260510123556 9 126 0.0 6.4 0.00 0.18 0.03 94 1010.9
20260510123057 9 143 0.0 9.7 0.00 0.18 0.03 94 1011.1
20260510122600 9 0 0.0 9.7 0.00 0.18 0.03 94 1010.9
20260510122059 9 113 1.6 6.4 0.00 0.18 0.03 94 1010.9
20260510121558 9 121 0.0 6.4 0.00 0.18 0.03 94 1011.0
20260510121056 8 194 1.6 11.3 0.00 0.18 0.03 94 1010.9
20260510120557 8 70 0.0 11.3 0.00 0.18 0.03 94 1010.9
20260510120100 8 125 0.0 6.4 0.00 0.18 0.03 94 1010.7
20260510115602 8 0 0.0 6.4 0.00 0.18 0.03 94 1010.9
20260510115057 8 268 0.0 11.3 0.00 0.18 0.03 94 1010.9
20260510114607 8 330 1.6 11.3 0.00 0.18 0.03 94 1010.7
20260510114100 8 161 1.6 11.3 0.00 0.18 0.03 95 1010.6
20260510113600 8 0 0.0 12.9 0.00 0.18 0.03 95 1010.4
20260510113102 8 112 0.0 12.9 0.00 0.18 0.03 94 1010.2
20260510112600 7 0 3.2 12.9 0.00 0.18 0.03 94 1010.1
20260510112057 7 94 1.6 9.7 0.00 0.18 0.03 94 1010.2
20260510111559 7 168 0.0 6.4 0.00 0.18 0.03 94 1010.2
20260510111101 7 151 1.6 11.3 0.00 0.18 0.03 94 1010.4
20260510110558 7 182 1.6 11.3 0.00 0.18 0.03 94 1010.5
20260510110104 7 266 1.6 8.0 0.00 0.18 0.03 94 1010.4
20260510105556 7 228 1.6 9.7 0.00 0.18 0.03 94 1010.2
20260510105100 7 125 1.6 11.3 0.00 0.18 0.03 94 1010.1
20260510104619 7 0 1.6 11.3 0.00 0.18 0.03 94 1009.9
20260510104100 7 0 0.0 6.4 0.00 0.18 0.03 94 1009.6
20260510103557 7 200 0.0 6.4 0.00 0.18 0.03 94 1009.7
20260510103101 7 202 0.0 4.8 0.00 0.18 0.03 94 1009.9
20260510102600 7 203 0.0 4.8 0.00 0.18 0.03 94 1009.7
20260510102056 7 221 0.0 1.6 0.00 0.18 0.03 94 1009.7
20260510101558 7 0 0.0 1.6 0.00 0.18 0.03 94 1009.7
20260510101058 7 0 0.0 4.8 0.00 0.18 0.03 94 1009.6
20260510100557 7 0 0.0 6.4 0.00 0.18 0.03 94 1009.7
20260510100100 7 247 3.2 6.4 0.00 0.18 0.03 94 1009.7
20260510095557 7 254 0.0 4.8 0.00 0.18 0.03 94 1009.6
20260510095059 7 295 1.6 4.8 0.00 0.18 0.03 94 1009.5
20260510094600 7 0 0.0 6.4 0.00 0.18 0.03 94 1009.3
20260510094101 7 171 0.0 6.4 0.00 0.18 0.03 94 1009.3
20260510093558 6 174 0.0 3.2 0.00 0.18 0.03 94 1009.2
20260510093058 6 0 0.0 6.4 0.00 0.18 0.03 94 1009.3
20260510092558 7 0 1.6 6.4 0.00 0.18 0.03 94 1009.3
20260510092059 7 0 0.0 3.2 0.00 0.18 0.03 94 1009.2
20260510091556 7 0 0.0 3.2 0.00 0.18 0.03 94 1009.2
20260510091100 7 202 0.0 6.4 0.00 0.18 0.03 94 1009.1
20260510090600 7 202 0.0 6.4 0.00 0.18 0.03 94 1009.1
20260510090109 7 273 1.6 8.0 0.00 0.18 0.03 94 1009.2
20260510085601 7 0 1.6 9.7 0.03 0.18 0.03 94 1009.1
20260510085100 7 86 1.6 9.7 0.03 0.18 0.03 94 1008.7
20260510084602 7 89 3.2 14.5 0.03 0.18 0.03 94 1008.7
20260510084059 7 105 4.8 14.5 0.03 0.18 0.03 94 1008.5
20260510083600 7 120 6.4 14.5 0.03 0.18 0.03 94 1008.7
20260510083105 7 120 3.2 14.5 0.03 0.18 0.03 94 1008.9
20260510082558 7 118 3.2 14.5 0.03 0.18 0.03 94 1009.2
20260510082058 7 87 3.2 9.7 0.03 0.18 0.03 94 1009.4
20260510081557 7 151 1.6 8.0 0.03 0.18 0.03 94 1009.5
20260510081057 7 236 3.2 8.0 0.03 0.18 0.03 94 1009.6
20260510080557 7 216 0.0 8.0 0.03 0.18 0.03 94 1009.5
20260510075557 7 163 1.6 8.0 0.00 0.15 0.00 94 1009.5
20260510075102 7 0 0.0 8.0 0.00 0.15 0.00 94 1009.6
20260510074625 7 173 1.6 6.4 0.00 0.15 0.00 94 1009.6
20260510074100 7 0 1.6 11.3 0.00 0.15 0.00 94 1009.5
20260510073556 7 233 0.0 11.3 0.00 0.15 0.00 94 1009.4
20260510073058 7 0 1.6 12.9 0.00 0.15 0.00 94 1009.4
20260510072557 7 175 1.6 12.9 0.00 0.15 0.00 94 1009.4
20260510072100 7 0 1.6 6.4 0.00 0.15 0.00 94 1009.3
20260510071602 7 114 0.0 11.3 0.00 0.15 0.00 94 1009.4
20260510071059 7 93 1.6 11.3 0.00 0.15 0.00 94 1009.4
20260510070558 7 84 0.0 12.9 0.00 0.15 0.00 94 1009.4
20260510065600 7 93 1.6 12.9 0.00 0.15 0.00 94 1009.6
20260510065059 7 269 0.0 6.4 0.00 0.15 0.00 94 1009.8
20260510064611 7 209 0.0 6.4 0.00 0.15 0.00 94 1009.7
20260510064057 7 209 0.0 9.7 0.00 0.15 0.00 94 1009.7
20260510063600 7 96 1.6 11.3 0.00 0.15 0.00 94 1009.5
20260510063102 7 30 1.6 11.3 0.00 0.15 0.00 94 1009.5
20260510062557 7 98 0.0 6.4 0.00 0.15 0.00 94 1009.6
20260510062056 7 0 1.6 11.3 0.00 0.15 0.00 94 1009.7
20260510061558 7 136 0.0 11.3 0.00 0.15 0.00 94 1009.7
20260510061058 7 54 1.6 14.5 0.00 0.15 0.00 94 1009.7
20260510060558 7 229 1.6 14.5 0.00 0.15 0.00 94 1009.7
20260510060100 7 111 1.6 6.4 0.00 0.15 0.00 94 1009.7
20260510055557 7 328 0.0 4.8 0.00 0.15 0.00 94 1009.7
20260510055057 7 0 0.0 4.8 0.00 0.15 0.00 94 1009.9
20260510054559 7 0 0.0 4.8 0.00 0.15 0.00 94 1009.9
20260510054058 7 0 0.0 4.8 0.00 0.15 0.00 94 1009.9
20260510053557 7 0 0.0 9.7 0.00 0.15 0.00 94 1009.9
20260510053058 7 117 1.6 9.7 0.00 0.15 0.00 93 1009.9
20260510052602 7 117 1.6 6.4 0.00 0.15 0.00 93 1010.0
20260510052058 7 0 1.6 8.0 0.00 0.15 0.00 94 1009.9
20260510051603 6 142 1.6 11.3 0.00 0.15 0.00 94 1009.7
20260510051057 6 286 1.6 11.3 0.00 0.15 0.00 94 1009.8
20260510050557 6 231 3.2 11.3 0.00 0.15 0.00 94 1009.7
20260510050101 6 237 1.6 11.3 0.00 0.15 0.00 94 1009.8
20260510045557 6 360 0.0 14.5 0.00 0.15 0.00 94 1010.0
20260510045057 6 0 1.6 14.5 0.00 0.15 0.00 93 1010.0
20260510044602 6 26 1.6 9.7 0.00 0.15 0.00 93 1010.1
20260510044056 6 269 3.2 11.3 0.00 0.15 0.00 93 1010.0
20260510043556 6 106 1.6 12.9 0.00 0.15 0.00 93 1010.1
20260510043103 6 0 1.6 19.3 0.00 0.15 0.00 93 1010.1
20260510042600 6 113 3.2 19.3 0.00 0.15 0.00 93 1009.9
20260510042057 6 61 1.6 8.0 0.00 0.15 0.00 93 1009.9
20260510041610 6 0 0.0 8.0 0.00 0.15 0.00 93 1009.7
20260510041057 6 146 1.6 8.0 0.00 0.15 0.00 93 1009.7
20260510040558 6 0 0.0 9.7 0.00 0.15 0.00 93 1009.9
20260510040058 6 218 1.6 9.7 0.00 0.15 0.00 93 1009.9
20260510035556 6 261 1.6 11.3 0.00 0.15 0.15 93 1009.9
20260510035056 6 288 1.6 11.3 0.00 0.15 0.15 93 1010.0
20260510034600 6 0 3.2 8.0 0.00 0.15 0.15 93 1010.1
20260510034057 6 0 0.0 6.4 0.00 0.15 0.15 93 1010.1
20260510033559 6 196 1.6 12.9 0.00 0.15 0.15 93 1010.1
20260510033101 6 166 3.2 12.9 0.00 0.15 0.15 93 1010.1
20260510032559 6 0 1.6 9.7 0.00 0.15 0.15 93 1010.0
20260510032100 6 273 1.6 17.7 0.00 0.15 0.15 93 1010.0
20260510031601 6 276 3.2 17.7 0.00 0.15 0.15 93 1010.1
20260510031057 6 164 1.6 12.9 0.00 0.15 0.15 93 1010.0
20260510030557 6 0 0.0 11.3 0.00 0.15 0.15 93 1010.2
20260510030059 6 236 0.0 11.3 0.00 0.15 0.15 93 1010.0
20260510025558 6 130 1.6 9.7 0.00 0.15 0.15 93 1010.1
20260510025101 6 173 1.6 9.7 0.00 0.15 0.15 93 1010.2
20260510024601 6 56 1.6 6.4 0.00 0.15 0.15 93 1010.2
20260510024058 6 0 0.0 6.4 0.00 0.15 0.15 93 1010.2
20260510023556 6 349 0.0 8.0 0.00 0.15 0.15 93 1010.1
20260510023056 6 64 0.0 12.9 0.00 0.15 0.15 93 1010.0
20260510022559 6 199 3.2 12.9 0.00 0.15 0.15 93 1010.2
20260510022058 6 0 1.6 12.9 0.00 0.15 0.15 93 1010.1
20260510021558 6 184 1.6 11.3 0.00 0.15 0.15 93 1010.2
20260510021101 6 167 1.6 9.7 0.00 0.15 0.15 93 1010.3
20260510020557 6 133 1.6 9.7 0.00 0.15 0.15 93 1010.1
20260510020059 6 0 0.0 8.0 0.00 0.15 0.15 93 1010.0
20260510015557 6 138 0.0 11.3 0.00 0.15 0.15 93 1010.2
20260510015058 6 0 0.0 11.3 0.00 0.15 0.15 93 1010.5
20260510014556 6 209 1.6 9.7 0.00 0.15 0.15 93 1010.6
20260510014057 6 225 1.6 11.3 0.00 0.15 0.15 93 1010.5
20260510013557 6 209 0.0 11.3 0.00 0.15 0.15 92 1010.6
20260510013108 6 156 1.6 9.7 0.00 0.15 0.15 93 1010.6
20260510012602 6 180 1.6 9.7 0.00 0.15 0.15 92 1010.5
20260510012058 6 0 0.0 9.7 0.00 0.15 0.15 92 1010.7
20260510011557 6 0 1.6 9.7 0.00 0.15 0.15 92 1010.9
20260510011057 6 0 0.0 9.7 0.00 0.15 0.15 92 1010.8
20260510010600 6 186 0.0 9.7 0.00 0.15 0.15 92 1010.8
20260510010110 6 314 1.6 9.7 0.00 0.15 0.15 92 1010.8
20260510005557 6 0 1.6 6.4 0.00 0.15 0.15 92 1010.6
20260510005059 6 98 0.0 6.4 0.00 0.15 0.15 92 1010.6
20260510004604 6 0 1.6 9.7 0.00 0.15 0.15 92 1010.6
20260510004057 6 101 0.0 9.7 0.00 0.15 0.15 92 1010.5
20260510003557 6 210 0.0 8.0 0.00 0.15 0.15 92 1010.5
20260510003059 6 197 1.6 8.0 0.00 0.15 0.15 92 1010.3
20260510002600 6 0 1.6 8.0 0.00 0.15 0.15 92 1010.3
20260510002057 6 0 1.6 9.7 0.00 0.15 0.15 92 1010.4
20260510001556 6 5 1.6 9.7 0.00 0.15 0.15 92 1010.3
20260510001059 6 229 1.6 12.9 0.00 0.15 0.15 92 1010.3
20260510000557 6 78 0.0 12.9 0.00 0.15 0.15 92 1010.2
20260510000119 6 0 0.0 6.4 0.00 0.15 0.15 92 1010.1
20260509235557 6 0 0.0 6.4 0.00 0.15 0.15 92 1009.9
20260509235057 6 124 1.6 8.0 0.00 0.15 0.15 92 1010.0
20260509234606 6 104 0.0 8.0 0.00 0.15 0.15 92 1010.0
20260509234100 6 0 3.2 8.0 0.00 0.15 0.15 92 1010.1
20260509233601 6 0 0.0 11.3 0.00 0.15 0.15 92 1010.2
20260509233059 6 151 1.6 11.3 0.00 0.15 0.15 92 1010.2
20260509232557 6 298 1.6 11.3 0.00 0.15 0.15 92 1010.1
20260509232058 6 76 0.0 6.4 0.00 0.15 0.15 92 1010.1
20260509231558 6 0 1.6 6.4 0.00 0.15 0.15 92 1010.0
20260509231057 6 37 1.6 6.4 0.00 0.15 0.15 92 1010.0
20260509230557 6 0 1.6 12.9 0.00 0.15 0.15 92 1010.0
20260509225557 6 0 1.6 12.9 0.00 0.15 0.15 92 1009.9
20260509225057 6 271 1.6 12.9 0.00 0.15 0.15 92 1009.9
20260509224559 6 0 0.0 11.3 0.00 0.15 0.15 92 1009.9
20260509224100 6 328 0.0 11.3 0.00 0.15 0.15 92 1009.9
20260509223559 6 105 1.6 11.3 0.00 0.15 0.15 92 1010.0
20260509223100 7 197 1.6 11.3 0.00 0.15 0.15 92 1009.9
20260509222558 7 0 1.6 11.3 0.00 0.15 0.15 92 1009.9
20260509222057 6 278 1.6 11.3 0.00 0.15 0.15 92 1009.9
20260509221611 6 254 1.6 11.3 0.00 0.15 0.15 92 1010.0
20260509221057 6 200 1.6 11.3 0.00 0.15 0.15 92 1010.1
20260509220559 6 196 1.6 11.3 0.00 0.15 0.15 92 1010.2
20260509220107 6 0 0.0 11.3 0.00 0.15 0.15 92 1010.2
20260509215558 6 107 1.6 12.9 0.00 0.15 0.15 92 1010.2
20260509215058 6 0 3.2 12.9 0.00 0.15 0.15 92 1010.2
20260509214558 6 0 0.0 11.3 0.03 0.15 0.15 92 1010.3
20260509214057 6 172 1.6 11.3 0.03 0.15 0.15 91 1010.3
20260509213557 6 130 0.0 6.4 0.03 0.15 0.15 92 1010.2
20260509213102 6 222 0.0 8.0 0.03 0.15 0.15 91 1010.4
20260509212558 6 0 1.6 9.7 0.03 0.15 0.15 92 1010.3
20260509212059 6 0 1.6 9.7 0.03 0.15 0.15 92 1010.4
20260509211559 6 152 1.6 14.5 0.03 0.15 0.15 92 1010.3
20260509211059 6 100 3.2 14.5 0.03 0.15 0.15 91 1010.4
20260509210559 6 100 0.0 9.7 0.03 0.15 0.15 91 1010.3
20260509210103 6 124 3.2 9.7 0.03 0.15 0.15 91 1010.3
20260509205556 6 0 1.6 9.7 0.03 0.15 0.15 91 1010.4
20260509205100 6 179 1.6 9.7 0.03 0.15 0.15 91 1010.4
20260509204602 6 153 0.0 6.4 0.00 0.13 0.13 91 1010.4
20260509204058 6 0 0.0 8.0 0.00 0.13 0.13 91 1010.4
20260509203557 6 0 0.0 11.3 0.00 0.13 0.13 91 1010.5
20260509203059 6 113 1.6 11.3 0.00 0.13 0.13 91 1010.5
20260509202557 6 0 1.6 6.4 0.00 0.13 0.13 91 1010.6
20260509202058 6 61 0.0 9.7 0.00 0.13 0.13 91 1010.6
20260509201559 6 0 0.0 9.7 0.00 0.13 0.13 91 1010.7
20260509201057 6 211 0.0 9.7 0.00 0.13 0.13 91 1010.8
20260509200557 6 242 0.0 6.4 0.00 0.13 0.13 91 1010.7
20260509200104 6 0 0.0 6.4 0.00 0.13 0.13 90 1010.8
20260509195559 6 190 0.0 4.8 0.00 0.13 0.13 90 1010.8
20260509195058 6 0 0.0 6.4 0.00 0.13 0.13 91 1010.9
20260509194558 6 217 0.0 8.0 0.00 0.13 0.13 91 1011.0
20260509194058 6 235 1.6 8.0 0.00 0.13 0.13 90 1011.0
20260509193559 6 221 0.0 8.0 0.00 0.13 0.13 90 1010.9
20260509193126 6 26 0.0 8.0 0.00 0.13 0.13 90 1010.9
20260509192557 6 185 0.0 8.0 0.00 0.13 0.13 90 1011.0
20260509192059 6 92 0.0 3.2 0.00 0.13 0.13 90 1011.0
20260509191615 6 0 0.0 8.0 0.00 0.13 0.13 90 1011.0
20260509191057 6 0 1.6 8.0 0.00 0.13 0.13 90 1011.0
20260509190557 6 0 0.0 14.5 0.00 0.13 0.13 90 1011.0
20260509190117 6 0 1.6 14.5 0.00 0.13 0.13 90 1011.0
20260509185557 6 178 1.6 9.7 0.00 0.13 0.13 90 1010.9
20260509185058 6 0 1.6 9.7 0.00 0.13 0.13 90 1011.0
20260509184558 6 113 0.0 4.8 0.00 0.13 0.13 90 1011.1
20260509184110 6 0 0.0 6.4 0.00 0.13 0.13 90 1011.2
20260509183559 6 0 0.0 6.4 0.00 0.13 0.13 90 1011.3
20260509183104 6 0 1.6 6.4 0.03 0.13 0.13 90 1011.3
20260509182557 6 0 0.0 6.4 0.03 0.13 0.13 90 1011.3
20260509182057 6 222 1.6 6.4 0.05 0.13 0.13 90 1011.4
20260509181602 6 196 1.6 6.4 0.05 0.13 0.13 90 1011.4
20260509181058 6 0 0.0 6.4 0.05 0.13 0.13 90 1011.4
20260509180557 6 235 1.6 9.7 0.08 0.13 0.13 90 1011.5
20260509180100 6 0 1.6 9.7 0.08 0.13 0.13 90 1011.6
20260509175557 6 90 1.6 9.7 0.08 0.13 0.13 90 1011.5
20260509175058 6 99 0.0 11.3 0.08 0.13 0.13 90 1011.6
20260509174611 6 199 1.6 11.3 0.08 0.13 0.13 90 1011.6
20260509174059 6 0 1.6 12.9 0.10 0.13 0.13 89 1011.8
20260509173557 6 100 1.6 12.9 0.10 0.13 0.13 89 1011.7
20260509173109 6 99 1.6 9.7 0.08 0.10 0.10 89 1011.8
20260509172600 6 113 1.6 14.5 0.08 0.10 0.10 89 1011.8
20260509172057 6 221 1.6 14.5 0.05 0.08 0.08 89 1011.9
20260509171622 6 63 0.0 9.7 0.08 0.08 0.08 89 1012.0
20260509171056 6 222 0.0 8.0 0.08 0.08 0.08 88 1012.0
20260509170558 6 0 0.0 8.0 0.05 0.05 0.05 88 1012.0
20260509170105 6 126 1.6 8.0 0.05 0.05 0.05 88 1012.2
20260509165557 6 84 0.0 9.7 0.05 0.05 0.05 88 1012.0
20260509165057 6 223 0.0 9.7 0.05 0.05 0.05 87 1012.2
20260509164608 6 212 1.6 9.7 0.03 0.03 0.03 87 1012.2
20260509164058 6 0 1.6 11.3 0.03 0.03 0.03 86 1012.3
20260509163557 6 196 3.2 11.3 0.03 0.03 0.03 86 1012.2
20260509163110 6 0 1.6 11.3 0.03 0.03 0.03 85 1012.2
20260509162558 6 94 0.0 6.4 0.03 0.03 0.03 84 1012.4
20260509162057 6 88 1.6 6.4 0.03 0.03 0.03 83 1012.5
20260509161609 7 71 1.6 6.4 0.00 0.00 0.00 81 1012.5
20260509161057 7 129 1.6 9.7 0.00 0.00 0.00 81 1012.5